• In Portugal
  • List of Countries
  • For 7 days
  • Water Temperature
  • Satellite Maps
  • Weather Map
  • Weather Widgets
  • user-avatar
    Login

    Hourly Weather Monaco

    Today, 20 February, Tuesday

    Time Temperature Precipitation Wind Pressure Humidity
    00:00 +5°C° 0 mm 3 mps 749 mmHg 88%
    01:00 +5°C° 0 mm 3 mps 749 mmHg 88%
    02:00 +5°C° 0 mm 3 mps 748 mmHg 87%
    03:00 +4°C° 0 mm 3 mps 748 mmHg 87%
    04:00 +4°C° 0 mm 3 mps 748 mmHg 86%
    05:00 +4°C° 0 mm 3 mps 747 mmHg 85%
    06:00 +4°C° 0 mm 3 mps 747 mmHg 83%
    07:00 +5°C° 0 mm 4 mps 747 mmHg 76%
    08:00 +6°C° 0 mm 4 mps 747 mmHg 69%
    09:00 +7°C° 0 mm 4 mps 747 mmHg 62%
    10:00 +8°C° 0 mm 4 mps 747 mmHg 59%
    11:00 +10°C° 0 mm 4 mps 746 mmHg 56%
    12:00 +11°C° 0 mm 4 mps 746 mmHg 52%
    13:00 +11°C° 0 mm 4 mps 746 mmHg 54%
    14:00 +10°C° 0 mm 3 mps 745 mmHg 55%
    15:00 +10°C° 0 mm 3 mps 745 mmHg 56%
    16:00 +9°C° 0 mm 3 mps 745 mmHg 63%
    17:00 +7°C° 0 mm 3 mps 745 mmHg 69%
    18:00 +4°C° 0 mm 3 mps 746 mmHg 75%
    19:00 +4°C° 0 mm 3 mps 746 mmHg 73%
    20:00 +4°C° 0 mm 3 mps 746 mmHg 70%
    21:00 +3°C° 0 mm 3 mps 746 mmHg 67%
    22:00 +3°C° 0.1 mm 3 mps 746 mmHg 67%
    23:00 +3°C° 0.1 mm 4 mps 746 mmHg 67%

    Tomorrow, 21 February, Wednesday

    Time Temperature Precipitation Wind Pressure Humidity
    00:00 +3°C° 0.1 mm 4 mps 746 mmHg 67%
    01:00 +3°C° 0.2 mm 4 mps 746 mmHg 69%
    02:00 +2°C° 0.2 mm 5 mps 746 mmHg 71%
    03:00 +2°C° 0.2 mm 5 mps 746 mmHg 74%
    04:00 +2°C° 0.1 mm 6 mps 746 mmHg 73%
    05:00 +2°C° 0.1 mm 6 mps 746 mmHg 73%
    06:00 +2°C° 0.1 mm 6 mps 746 mmHg 72%
    07:00 +3°C° 0 mm 7 mps 746 mmHg 67%
    08:00 +4°C° 0 mm 7 mps 746 mmHg 62%
    09:00 +4°C° 0 mm 7 mps 746 mmHg 57%
    10:00 +5°C° 0.1 mm 7 mps 747 mmHg 54%
    11:00 +6°C° 0.1 mm 7 mps 747 mmHg 51%
    12:00 +6°C° 0.1 mm 7 mps 747 mmHg 49%
    13:00 +6°C° 0 mm 7 mps 746 mmHg 48%
    14:00 +8°C° 0 mm 6 mps 746 mmHg 47%
    15:00 +8°C° 0 mm 6 mps 746 mmHg 47%
    16:00 +7°C° 0 mm 6 mps 746 mmHg 51%
    17:00 +5°C° 0 mm 5 mps 746 mmHg 56%
    18:00 +3°C° 0 mm 5 mps 746 mmHg 61%
    19:00 +3°C° 0.1 mm 5 mps 746 mmHg 62%
    20:00 +3°C° 0.1 mm 5 mps 746 mmHg 62%
    21:00 +3°C° 0.1 mm 5 mps 746 mmHg 63%
    22:00 +3°C° 0 mm 5 mps 746 mmHg 61%
    23:00 +3°C° 0 mm 5 mps 746 mmHg 59%

    Day after tomorrow, 22 February, Thursday

    Time Temperature Precipitation Wind Pressure Humidity
    00:00 +4°C° 0 mm 4 mps 745 mmHg 57%
    01:00 +4°C° 0 mm 4 mps 745 mmHg 55%
    02:00 +3°C° 0 mm 4 mps 745 mmHg 53%
    03:00 +2°C° 0 mm 5 mps 744 mmHg 52%
    04:00 +2°C° 0 mm 5 mps 744 mmHg 53%
    05:00 +2°C° 0 mm 5 mps 744 mmHg 55%
    06:00 +2°C° 0 mm 5 mps 744 mmHg 56%
    07:00 +3°C° 0.1 mm 5 mps 744 mmHg 56%
    08:00 +5°C° 0.1 mm 5 mps 744 mmHg 56%
    09:00 +6°C° 0.1 mm 5 mps 744 mmHg 56%
    10:00 +6°C° 0.1 mm 5 mps 744 mmHg 55%
    11:00 +7°C° 0.1 mm 5 mps 744 mmHg 55%
    12:00 +7°C° 0.1 mm 5 mps 744 mmHg 54%
    13:00 +7°C° 0.1 mm 5 mps 744 mmHg 55%
    14:00 +7°C° 0.1 mm 5 mps 744 mmHg 57%
    15:00 +7°C° 0.1 mm 5 mps 744 mmHg 58%
    16:00 +6°C° 0.1 mm 5 mps 744 mmHg 61%
    17:00 +5°C° 0.1 mm 5 mps 744 mmHg 65%
    18:00 +3°C° 0.1 mm 5 mps 745 mmHg 68%
    19:00 +3°C° 0.1 mm 5 mps 745 mmHg 69%
    20:00 +3°C° 0.1 mm 5 mps 745 mmHg 70%
    21:00 +3°C° 0.1 mm 5 mps 745 mmHg 71%
    22:00 +3°C° 0.1 mm 5 mps 745 mmHg 72%
    23:00 +3°C° 0.1 mm 5 mps 745 mmHg 72%

    23 February, Friday

    Time Temperature Precipitation Wind Pressure Humidity
    00:00 +2°C° 0.1 mm 5 mps 745 mmHg 72%
    01:00 +2°C° 0.1 mm 5 mps 745 mmHg 72%
    02:00 +2°C° 0.1 mm 5 mps 745 mmHg 71%
    03:00 +2°C° 0.1 mm 5 mps 745 mmHg 71%
    04:00 +2°C° 0 mm 5 mps 745 mmHg 70%
    05:00 +2°C° 0 mm 5 mps 745 mmHg 69%
    06:00 +2°C° 0 mm 5 mps 745 mmHg 69%
    07:00 +3°C° 0 mm 5 mps 746 mmHg 65%
    08:00 +6°C° 0 mm 4 mps 746 mmHg 61%
    09:00 +7°C° 0 mm 4 mps 746 mmHg 57%
    10:00 +8°C° 0.1 mm 4 mps 746 mmHg 56%
    11:00 +10°C° 0.1 mm 4 mps 746 mmHg 54%
    12:00 +10°C° 0.1 mm 4 mps 746 mmHg 53%
    13:00 +10°C° 0 mm 4 mps 746 mmHg 55%
    14:00 +10°C° 0 mm 4 mps 746 mmHg 56%
    15:00 +10°C° 0 mm 4 mps 746 mmHg 58%
    16:00 +7°C° 0 mm 4 mps 746 mmHg 63%
    17:00 +6°C° 0 mm 5 mps 747 mmHg 68%
    18:00 +5°C° 0 mm 5 mps 747 mmHg 73%
    19:00 +5°C° 0 mm 5 mps 747 mmHg 73%
    20:00 +3°C° 0 mm 5 mps 748 mmHg 73%
    21:00 +3°C° 0 mm 5 mps 748 mmHg 73%
    22:00 +3°C° 0 mm 5 mps 748 mmHg 72%
    23:00 +3°C° 0 mm 5 mps 748 mmHg 71%

    24 February, Saturday

    Time Temperature Precipitation Wind Pressure Humidity
    00:00 +3°C° 0 mm 5 mps 748 mmHg 71%
    01:00 +3°C° 0 mm 5 mps 748 mmHg 70%
    02:00 +3°C° 0 mm 5 mps 747 mmHg 70%
    03:00 +4°C° 0 mm 4 mps 747 mmHg 69%
    04:00 +4°C° 0.1 mm 4 mps 747 mmHg 70%
    05:00 +5°C° 0.1 mm 4 mps 747 mmHg 70%
    06:00 +5°C° 0.1 mm 4 mps 747 mmHg 71%
    07:00 +6°C° 0.6 mm 4 mps 747 mmHg 70%
    08:00 +6°C° 0.6 mm 4 mps 747 mmHg 69%
    09:00 +8°C° 0.6 mm 3 mps 747 mmHg 69%
    10:00 +7°C° 1.1 mm 4 mps 747 mmHg 69%
    11:00 +7°C° 1.1 mm 4 mps 747 mmHg 69%
    12:00 +7°C° 1.1 mm 4 mps 747 mmHg 69%
    13:00 +7°C° 1.1 mm 4 mps 747 mmHg 71%
    14:00 +7°C° 1.1 mm 4 mps 747 mmHg 73%
    15:00 +7°C° 1.1 mm 4 mps 747 mmHg 75%
    16:00 +7°C° 0.9 mm 3 mps 747 mmHg 76%
    17:00 +7°C° 0.9 mm 3 mps 748 mmHg 78%
    18:00 +7°C° 0.9 mm 3 mps 748 mmHg 79%
    19:00 +7°C° 0.9 mm 3 mps 748 mmHg 80%
    20:00 +7°C° 0.9 mm 3 mps 748 mmHg 80%
    21:00 +7°C° 0.9 mm 3 mps 749 mmHg 80%
    22:00 +5°C° 0.8 mm 4 mps 749 mmHg 80%
    23:00 +5°C° 0.8 mm 4 mps 749 mmHg 80%

    25 February, Sunday

    Time Temperature Precipitation Wind Pressure Humidity
    00:00 +5°C° 0.8 mm 4 mps 748 mmHg 80%
    01:00 +5°C° 0.5 mm 4 mps 748 mmHg 80%
    02:00 +5°C° 0.5 mm 4 mps 748 mmHg 79%
    03:00 +5°C° 0.5 mm 4 mps 748 mmHg 79%
    04:00 +5°C° 0.2 mm 4 mps 748 mmHg 78%
    05:00 +5°C° 0.2 mm 4 mps 747 mmHg 78%
    06:00 +5°C° 0.2 mm 4 mps 747 mmHg 77%
    07:00 +7°C° 0.1 mm 3 mps 747 mmHg 75%
    08:00 +8°C° 0.1 mm 3 mps 747 mmHg 72%
    09:00 +9°C° 0.1 mm 3 mps 747 mmHg 70%
    10:00 +9°C° 0.1 mm 3 mps 747 mmHg 72%
    11:00 +9°C° 0.1 mm 3 mps 747 mmHg 73%
    12:00 +9°C° 0.1 mm 3 mps 747 mmHg 75%
    13:00 +9°C° 0.3 mm 3 mps 746 mmHg 78%
    14:00 +9°C° 0.3 mm 3 mps 746 mmHg 81%
    15:00 +8°C° 0.3 mm 3 mps 746 mmHg 84%
    16:00 +7°C° 0.3 mm 3 mps 746 mmHg 86%
    17:00 +6°C° 0.3 mm 4 mps 746 mmHg 89%
    18:00 +5°C° 0.3 mm 4 mps 746 mmHg 91%
    19:00 +5°C° 0.4 mm 5 mps 747 mmHg 89%
    20:00 +3°C° 0.4 mm 5 mps 747 mmHg 88%
    21:00 +3°C° 0.4 mm 6 mps 747 mmHg 86%
    22:00 +2°C° 0.3 mm 6 mps 748 mmHg 85%
    23:00 +2°C° 0.3 mm 7 mps 748 mmHg 84%
    Show more